Limerick, Ireland

1:04 AM GMT on February 28, 2017 (GMT +0000)
Shannon

Weather History for EINN - May, 2014

Change the Weather History Date:

Thursday, May 15, 2014

  Actual Average Record
Temperature  
Mean Temperature 58 °F -  
Max Temperature 66 °F 62 °F 68 °F (2000)
Min Temperature 50 °F 48 °F 38 °F (2012)
Degree Days  
Heating Degree Days 7    
Growing Degree Days 8 (Base 50)    
Moisture  
Dew Point 51 °F    
Average Humidity 81    
Maximum Humidity 100    
Minimum Humidity 54    
Precipitation  
Precipitation 0.00 in 0.08 in - ()
Sea Level Pressure  
Sea Level Pressure 30.58 in    
Wind  
Wind Speed 4 mph ()    
Max Wind Speed 9 mph    
Max Gust Speed -    
Visibility 8.0 miles    
Events      
Averages and records for this station are not official NWS values.
T = Trace of Precipitation, MM = Missing Value Source: Averaged Metar Reports

Daily Weather History Graph

Daily Weather History Graph

Search for Another Location

Airport or City:

Trip Planner

Search our weather history database for the weather conditions in past years. The results will help you decide how hot, cold, wet, or windy it might be!

Date:

Astronomy

May. 15, 2014 Rise Set
Actual Time 5:39 AM IST 9:26 PM IST
Civil Twilight 4:55 AM IST 10:09 PM IST
Nautical Twilight 3:55 AM IST 11:10 PM IST
Astronomical Twilight 2:10 AM IST 1:03 AM IST
Moon 10:19 PM IST (5/15) 6:18 AM IST (5/15)
Length of Visible Light 17h 13m
Length of Day
15h 47m
Waxing Gibbous, 99% of the Moon is Illuminated
May 15
Waxing Gibbous
May 21
Last Quarter
May 28
New
Jun 5
First Quarter
Jun 13
Full

Hourly Weather History & Observations

Time (IST) Temp. Dew Point Humidity Pressure Visibility Wind Dir Wind Speed Gust Speed Precip Events Conditions
12:00 AM 52 °F 51 °F 95% 30.60 in 12 mi West 4.5 mph - -   Scattered Clouds
12:00 AM 51.8 °F 51.8 °F 100% 30.60 in 6.2 mi West 4.6 mph - N/A   Mostly Cloudy
12:30 AM 51.8 °F 50.0 °F 94% 30.60 in - West 2.3 mph - N/A   Clear
1:00 AM 51 °F 51 °F 98% 30.59 in 12 mi SW 2.2 mph - -   Partly Cloudy
1:00 AM 51.8 °F 50.0 °F 94% 30.57 in 6.2 mi SW 2.3 mph - N/A   Mostly Cloudy
1:30 AM 51.8 °F 50.0 °F 94% 30.60 in 6.2 mi SW 3.5 mph - N/A   Mostly Cloudy
2:00 AM 51 °F 50 °F 94% 30.60 in 12 mi SW 2.2 mph - -   Partly Cloudy
2:00 AM 51.8 °F 50.0 °F 94% 30.60 in 6.2 mi SW 2.3 mph - N/A   Mostly Cloudy
2:30 AM 50.0 °F 50.0 °F 100% 30.60 in 6.2 mi West 3.5 mph - N/A   Mostly Cloudy
3:00 AM 51 °F 50 °F 95% 30.59 in 12 mi WSW 2.2 mph - -   Scattered Clouds
3:00 AM 50.0 °F 50.0 °F 100% 30.57 in 6.2 mi WSW 1.2 mph - N/A   Mostly Cloudy
3:30 AM 50.0 °F 50.0 °F 100% 30.57 in 6.2 mi WSW 1.2 mph - N/A   Mostly Cloudy
4:00 AM 50 °F 50 °F 99% 30.59 in 11 mi WSW 2.2 mph - -   Overcast
4:00 AM 50.0 °F 50.0 °F 100% 30.57 in 6.2 mi WSW 1.2 mph - N/A   Mostly Cloudy
4:30 AM 50.0 °F 50.0 °F 100% 30.57 in 6.2 mi West 1.2 mph - N/A   Mostly Cloudy
5:00 AM 51 °F 50 °F 97% 30.59 in 11 mi SE 2.2 mph - -   Overcast
5:00 AM 51.8 °F 50.0 °F 94% 30.57 in 6.2 mi SE 2.3 mph - N/A   Mostly Cloudy
5:30 AM 51.8 °F 50.0 °F 94% 30.57 in 6.2 mi SE 2.3 mph - N/A   Mostly Cloudy
6:00 AM 51 °F 50 °F 97% 30.59 in 9 mi NE 2.2 mph - -   Mostly Cloudy
6:00 AM 51.8 °F 50.0 °F 94% 30.57 in 6.2 mi NE 2.3 mph - N/A   Mostly Cloudy
6:30 AM 51.8 °F 51.8 °F 100% 30.57 in 6.2 mi ESE 1.2 mph - N/A   Mostly Cloudy
7:00 AM 52 °F 51 °F 95% 30.60 in 7 mi East 4.5 mph - -   Mist
7:00 AM 51.8 °F 51.8 °F 100% 30.60 in 6.2 mi East 3.5 mph - N/A   Mostly Cloudy
7:30 AM 53.6 °F 51.8 °F 94% 30.60 in 6.2 mi East 2.3 mph - N/A   Mostly Cloudy
8:00 AM 53 °F 51 °F 91% 30.61 in 7 mi ENE 2.2 mph - -   Mist
8:00 AM 53.6 °F 51.8 °F 94% 30.60 in 6.2 mi ENE 2.3 mph - N/A   Mostly Cloudy
8:30 AM 53.6 °F 50.0 °F 88% 30.60 in 6.2 mi Variable 2.3 mph - N/A   Mostly Cloudy
9:00 AM 54 °F 50 °F 82% 30.61 in 6 mi SE 2.2 mph - -   Mist
9:00 AM 53.6 °F 50.0 °F 88% 30.60 in 6.2 mi Variable 2.3 mph - N/A   Mostly Cloudy
9:30 AM 53.6 °F 50.0 °F 88% 30.60 in 6.2 mi Variable 1.2 mph - N/A   Mostly Cloudy
10:00 AM 55 °F 51 °F 80% 30.61 in 7 mi SSE 4.5 mph - -   Mist
10:00 AM 55.4 °F 50.0 °F 82% 30.60 in 6.2 mi Variable 3.5 mph - N/A   Mostly Cloudy
10:30 AM 55.4 °F 51.8 °F 88% 30.60 in 6.2 mi ESE 3.5 mph - N/A   Mostly Cloudy
11:00 AM 58 °F 51 °F 70% 30.61 in 12 mi SSE 4.5 mph - -   Partly Cloudy
11:00 AM 57.2 °F 51.8 °F 82% 30.60 in 6.2 mi SSE 3.5 mph - N/A   Mostly Cloudy
11:30 AM 60.8 °F 51.8 °F 72% 30.60 in 6.2 mi SSE 3.5 mph - N/A   Scattered Clouds
12:00 PM 61 °F 53 °F 67% 30.60 in 16 mi WSW 4.5 mph - -   Scattered Clouds
12:00 PM 60.8 °F 53.6 °F 77% 30.60 in 6.2 mi WSW 4.6 mph - N/A   Scattered Clouds
12:30 PM 62.6 °F 51.8 °F 68% 30.60 in 6.2 mi West 4.6 mph - N/A   Scattered Clouds
1:00 PM 62 °F 52 °F 62% 30.59 in 19 mi WNW 6.7 mph - -   Partly Cloudy
1:00 PM 62.6 °F 51.8 °F 68% 30.57 in 6.2 mi WNW 5.8 mph - N/A   Scattered Clouds
1:30 PM 62.6 °F 51.8 °F 68% 30.57 in 6.2 mi NW 6.9 mph - N/A   Scattered Clouds
2:00 PM 63 °F 52 °F 58% 30.59 in 19 mi West 6.7 mph - -   Partly Cloudy
2:00 PM 62.6 °F 51.8 °F 68% 30.57 in 6.2 mi West 5.8 mph - N/A   Scattered Clouds
2:30 PM 64.4 °F 51.8 °F 64% 30.57 in 6.2 mi West 4.6 mph - N/A   Scattered Clouds
3:00 PM 66 °F 53 °F 54% 30.59 in 19 mi West 6.7 mph - -   Mostly Cloudy
3:00 PM 66.2 °F 53.6 °F 64% 30.57 in 6.2 mi West 6.9 mph - N/A   Scattered Clouds
3:30 PM 66.2 °F 51.8 °F 60% 30.57 in 6.2 mi West 4.6 mph - N/A   Scattered Clouds
4:00 PM 66 °F 54 °F 56% 30.58 in 25 mi WSW 6.7 mph - -   Partly Cloudy
4:00 PM 66.2 °F 53.6 °F 64% 30.57 in 6.2 mi WSW 6.9 mph - N/A   Scattered Clouds
4:30 PM 66.2 °F 53.6 °F 64% 30.57 in 6.2 mi West 8.1 mph - N/A   Scattered Clouds
5:00 PM 66 °F 54 °F 55% 30.57 in 25 mi West 6.7 mph - -   Partly Cloudy
5:00 PM 66.2 °F 53.6 °F 64% 30.57 in 6.2 mi West 6.9 mph - N/A   Scattered Clouds
5:30 PM 66.2 °F 53.6 °F 64% 30.57 in 6.2 mi West 6.9 mph - N/A   Mostly Cloudy
6:00 PM 65 °F 53 °F 55% 30.57 in 25 mi West 8.9 mph - -   Scattered Clouds
6:00 PM 64.4 °F 53.6 °F 68% 30.57 in 6.2 mi West 9.2 mph - N/A   Partly Cloudy
6:30 PM 64.4 °F 53.6 °F 68% 30.57 in 6.2 mi WNW 9.2 mph - N/A   Scattered Clouds
7:00 PM 63 °F 53 °F 60% 30.57 in 25 mi West 6.7 mph - -   Partly Cloudy
7:00 PM 62.6 °F 53.6 °F 72% 30.57 in 6.2 mi West 6.9 mph - N/A   Scattered Clouds
7:30 PM 60.8 °F 51.8 °F 72% 30.57 in 6.2 mi West 9.2 mph - N/A   Scattered Clouds
8:00 PM 59 °F 51 °F 67% 30.58 in 25 mi West 6.7 mph - -   Partly Cloudy
8:30 PM 59.0 °F 51.8 °F 77% 30.57 in 6.2 mi NW 4.6 mph - N/A   Mostly Cloudy
9:00 PM 56 °F 51 °F 76% 30.58 in 19 mi NW 6.7 mph - -   Partly Cloudy
9:00 PM 57.2 °F 50.0 °F 77% 30.57 in 6.2 mi NW 6.9 mph - N/A   Mostly Cloudy
9:30 PM 55.4 °F 50.0 °F 82% 30.57 in 6.2 mi NW 4.6 mph - N/A   Scattered Clouds
10:00 PM 54 °F 50 °F 82% 30.58 in 16 mi NW 4.5 mph - -   Partly Cloudy
10:00 PM 53.6 °F 50.0 °F 88% 30.57 in 6.2 mi NW 3.5 mph - N/A   Mostly Cloudy
10:30 PM 53.6 °F 50.0 °F 88% 30.57 in 6.2 mi NW 2.3 mph - N/A   Scattered Clouds
11:00 PM 52 °F 50 °F 89% 30.58 in 12 mi North 2.2 mph - -   Partly Cloudy
11:00 PM 51.8 °F 50.0 °F 94% 30.57 in 6.2 mi North 1.2 mph - N/A   Scattered Clouds
11:30 PM 51.8 °F 50.0 °F 94% 30.57 in 6.2 mi WNW 2.3 mph - N/A   Scattered Clouds